Location: Écuvilly
(49.6505°N, 2.9206°E)
Time: 17:00:45
(UTC+00:00)

COSMO-SKYMED 1 - Pass Details

Date: 17 November 2025
Orbit: 579 x 581 km, 97.9° (Epoch: 10 December)

Event Time Altitude Azimuth Distance (km) Brightness Sun altitude
Exits shadow 17:21:17 19° 71° (ENE) 1,400 3.7 -12.6°
Maximum altitude 17:22:22 21° 93° (E) 1,318 3.7 -12.8°
Drops below altitude 10° 17:25:31 10° 143° (SE) 1,893 4.8 -13.3°
Sets 17:28:05 0° 160° (SSE) 2,786 5.8 -13.7°
